{"data":{"norad_id":57076,"epoch":"2026-09-20T21:45:59.444064Z","epoch_age_seconds":85756,"freshness":"FRESH","line1":"1 57076U 23088AE  26263.90693801 -.00000189  00000+0  26445-5 0  9995","line2":"2 57076  43.0022  73.8747 0000969 256.5156 103.5588 15.27575154180188","mean_motion":15.27575154,"eccentricity":9.69e-5,"inclination_deg":43.0022,"raan_deg":73.8747,"arg_perigee_deg":256.5156,"mean_anomaly_deg":103.5588,"bstar":2.6445e-6,"rev_number":18018,"period_min":94.267047760584,"perigee_km":482.39875640656,"apogee_km":483.72845708415,"semimajor_km":6861.2006067454,"source":"CELESTRAK","updated_at":"2026-09-21T09:00:33.553781Z"}}